Temperature
12 12 12 12 12 12 12 13 13 13 13 13 13 13 13 13 13 13 13 13 13 13 13 13 13 13 13 12 12 12 12 12 12 11 11 11 11 11 11 11 10 10 10
12 12 12 12 12 12 12 12 12 12 12 12 12 12 12 12 12 12 12 12 12 12 12 12 12 12 12 12 12 12 12 12 12 11 11 11 11 11 11 10 10 10 9
11 11 11 11 11 11 11 11 11 11 11 11 11 12 12 12 12 12 12 12 12 12 12 12 12 12 12 12 12 12 12 12 11 11 11 11 11 11 11 10 10 10 9
10 10 10 10 10 10 10 10 10 10 11 11 11 11 11 11 12 12 12 12 12 12 12 12 12 12 12 12 12 12 12 11 11 11 11 11 11 11 10 10 10 10 9
9 9 9 9 9 9 9 9 9 9 10 10 10 10 10 10 11 11 11 11 12 12 12 12 12 12 12 12 12 11 11 11 11 11 11 11 11 10 10 10 10 10 9
9 9 9 9 9 9 9 9 8 8 9 9 9 9 10 10 10 10 11 11 11 11 11 11 11 11 11 11 11 11 11 11 11 11 11 11 10 10 10 10 9 9 9
8 8 8 8 8 8 8 8 8 8 8 8 8 8 9 9 10 10 10 10 10 11 11 11 11 11 11 11 11 11 11 11 10 10 10 10 10 10 10 9 9 9 9
8 8 8 8 8 8 7 7 7 7 7 7 7 6 7 8 9 9 9 10 10 10 10 10 10 11 11 11 11 11 11 10 10 10 10 10 10 10 10 9 9 9 9
8 7 7 7 7 7 7 7 7 6 6 6 6 6 6 6 7 8 9 9 9 9 10 10 10 10 10 10 11 10 10 10 10 10 10 10 10 10 9 9 9 8 8
7 7 7 7 7 7 7 7 6 6 6 6 6 6 6 6 6 6 7 8 8 9 9 9 9 10 10 10 10 10 10 10 10 10 9 9 9 9 9 9 8 8 8
7 7 7 6 6 6 6 6 6 6 6 5 5 5 5 5 5 5 6 7 8 8 8 9 9 9 9 9 10 10 10 10 9 9 9 9 9 9 9 8 8 8 8
6 6 6 6 6 6 6 6 6 6 5 5 5 5 5 5 5 5 5 6 6 7 8 8 8 9 9 9 9 9 9 9 9 9 9 9 9 9 8 8 8 8 8
6 6 6 6 6 5 5 5 5 5 5 5 5 5 5 5 5 5 5 5 5 6 7 7 8 8 8 8 9 9 9 9 9 9 9 8 8 8 8 8 8 7 7
5 5 5 5 5 5 5 5 5 5 5 5 4 5 5 5 5 5 5 5 5 5 6 7 7 8 8 8 8 8 8 8 8 8 8 8 8 8 8 7 7 7 7
5 5 5 5 5 5 5 4 4 4 4 4 4 4 4 4 4 5 5 5 5 5 5 6 7 7 7 8 8 8 8 8 8 8 8 8 8 8 7 7 7 7 7
5 4 4 4 4 4 4 4 4 4 4 4 4 4 4 4 4 4 4 5 5 5 5 6 6 7 7 7 7 7 7 7 7 7 7 7 7 7 7 7 7 7 6
4 4 4 4 4 4 4 4 4 3 3 3 3 3 3 4 4 4 4 4 5 5 5 6 6 6 6 6 7 7 7 7 7 7 7 7 7 7 7 6 6 6 6
4 4 4 4 4 4 4 3 3 3 3 3 3 3 3 3 4 4 4 4 4 5 5 5 6 6 6 6 6 6 6 6 6 6 6 6 6 6 6 6 6 6 5
3 3 3 3 3 3 3 3 3 3 3 3 3 3 3 3 3 4 4 4 4 5 5 5 5 6 5 5 5 6 6 6 6 6 6 6 6 5 6 5 5 5 5
3 3 3 3 3 3 3 3 2 2 2 3 3 3 3 3 3 4 4 4 4 4 5 5 5 5 5 5 5 5 5 5 5 5 5 5 5 5 5 5 5 5 4
3 2 2 3 2 2 2 2 2 2 2 2 3 3 3 3 3 3 3 4 4 4 5 5 5 5 5 5 5 5 4 4 5 4 5 5 5 5 4 4 4 4 4
2 2 2 2 2 2 2 2 2 2 2 2 2 3 3 3 3 3 3 4 4 4 4 4 4 4 4 5 4 4 4 4 4 4 4 4 4 4 4 4 4 3 3
2 2 2 2 2 2 2 2 2 2 2 2 2 2 3 3 3 3 3 3 4 4 4 4 4 4 4 5 4 4 4 4 4 3 3 3 3 3 3 3 3 3 3
1 1 1 1 1 2 1 2 2 2 2 2 2 2 2 3 3 3 3 3 4 4 4 4 4 5 5 4 4 4 4 4 3 3 3 3 3 3 3 2 2 2 2
1 1 1 1 1 1 2 2 2 2 2 2 2 2 2 2 3 3 3 3 3 4 4 4 4 4 4 4 4 4 3 3 2 2 3 2 3 2 2 2 2 2 2
0 0 0 1 1 1 1 1 1 1 2 2 2 2 2 2 3 3 3 3 3 3 3 3 4 4 4 3 4 3 3 3 3 2 2 2 2 2 1 2 1 1 1
Wind_Speed
2 2 2 2 2 3 2 2 2 3 3 4 4 4 5 6 7 8 8 13 16 17 19 19 19 19 18 19 18 18 18 18 18 17 15 15 13 12 11 10 8 8 7
1 2 2 2 2 2 2 2 3 3 3 3 4 5 5 6 7 8 8 11 15 16 19 20 20 19 19 18 18 18 18 19 19 18 17 16 14 13 12 11 10 9 8
2 1 2 3 2 3 2 2 3 2 3 4 5 5 5 5 6 8 8 9 11 15 17 19 20 20 19 19 18 18 18 18 18 18 17 16 15 15 14 12 11 10 9
3 1 2 3 3 3 2 2 2 3 3 4 5 5 5 5 7 7 8 8 9 10 14 17 19 20 20 19 19 18 18 17 18 18 18 17 16 16 15 13 12 11 10
4 2 2 3 3 2 2 3 2 3 4 4 5 5 5 5 6 7 7 9 9 10 10 14 16 18 19 20 19 18 18 18 17 18 18 18 17 16 16 14 13 12 12
5 3 3 3 3 2 3 3 3 3 4 4 6 6 6 6 6 7 8 7 8 9 10 10 11 13 17 19 20 19 19 18 18 18 18 18 18 17 16 15 14 13 13
5 4 3 3 3 4 4 4 3 4 4 3 3 5 6 6 6 6 6 6 7 9 9 10 10 10 11 17 19 20 20 19 19 18 18 18 18 17 17 16 15 14 14
6 5 4 4 4 4 5 4 3 3 3 2 2 3 4 4 4 5 5 6 7 6 7 9 10 11 10 10 14 18 20 19 20 19 18 19 18 17 16 16 15 15 14
7 6 6 5 5 5 5 5 5 4 4 4 3 3 2 4 5 4 5 6 6 6 6 7 10 11 11 11 11 15 18 20 20 20 19 18 18 17 16 15 15 14 14
7 8 7 6 6 5 6 6 6 5 5 5 4 4 5 4 4 4 4 5 6 7 7 7 8 10 11 11 12 14 16 19 20 20 19 17 17 17 16 15 14 14 13
7 8 8 7 7 6 7 7 7 6 5 6 5 5 5 5 5 6 8 6 5 6 7 7 7 8 10 10 11 12 15 17 19 19 18 18 16 17 16 15 14 13 12
6 8 8 7 8 7 8 8 8 8 8 8 7 6 6 5 5 5 7 8 7 6 7 6 7 7 8 9 11 13 15 16 17 17 16 16 15 16 15 14 13 12 11
6 8 8 8 7 8 8 8 8 9 9 9 9 8 8 8 6 6 7 8 7 6 5 5 6 6 7 8 10 13 14 15 15 15 13 13 13 13 13 12 12 12 11
8 8 9 9 9 9 9 8 8 9 8 9 11 10 9 9 7 7 7 7 8 7 5 6 4 7 7 7 10 12 11 14 14 13 11 11 10 10 11 11 11 11 10
8 9 9 9 9 9 9 9 8 10 9 10 10 11 10 9 8 8 8 8 8 9 9 5 4 5 6 6 9 9 9 12 12 12 11 10 9 9 10 10 10 10 9
9 9 9 9 10 10 9 9 9 10 10 11 9 10 11 9 9 8 8 8 8 9 9 5 4 4 5 5 9 8 9 11 12 12 11 10 9 9 9 9 10 9 9
8 9 9 10 10 10 9 9 10 10 11 12 11 12 12 11 9 8 8 8 8 8 9 6 3 3 4 5 5 5 6 7 8 10 10 10 9 9 9 9 9 9 9
8 9 9 10 10 10 10 10 11 11 12 13 13 12 13 11 11 9 8 9 9 9 7 7 5 3 3 5 4 4 3 4 5 8 9 9 8 8 9 9 9 9 8
9 9 9 10 11 11 11 11 11 12 13 13 13 13 13 12 12 10 10 10 8 8 6 5 5 3 2 3 2 2 2 2 3 6 7 8 8 8 8 9 9 8 8
9 9 10 11 11 11 11 11 11 12 12 12 12 12 13 12 12 11 10 10 8 7 6 6 4 3 3 2 3 3 1 1 1 2 3 5 6 6 7 8 8 8 8
9 9 10 10 10 9 10 10 10 11 11 12 11 12 12 13 14 12 10 9 8 7 6 5 4 3 3 3 3 2 2 1 0 1 2 1 2 3 4 5 6 7 7
9 9 9 10 10 10 14 16 13 11 11 11 11 11 11 11 14 16 16 13 11 9 8 7 5 6 6 4 3 4 3 2 1 1 2 0 1 2 2 3 5 6 7
8 9 9 9 11 12 16 17 17 12 11 11 11 10 9 9 11 9 11 11 11 13 12 9 8 8 7 7 6 5 4 2 2 2 2 1 1 1 2 4 6 7 6
9 9 10 10 10 13 16 17 17 12 10 10 10 10 9 9 9 8 7 6 6 6 8 7 7 7 6 7 7 6 4 2 2 0 1 2 1 1 1 2 5 6 5
9 9 9 10 11 12 16 16 15 8 8 9 9 9 9 9 10 9 7 6 5 3 3 5 6 6 7 8 7 5 5 4 2 1 1 2 2 2 1 1 1 4 4
9 9 10 9 10 11 14 15 14 6 6 6 6 6 10 10 10 9 7 6 6 4 4 3 3 4 5 6 6 6 7 6 3 2 2 3 3 3 1 1 1 1 2
Wind_Direction
349 339 340 352 351 352 345 333 321 311 298 278 263 256 250 236 232 227 229 230 229 231 232 231 225 220 217 213 210 209 206 203 203 202 203 203 204 205 207 210 216 224 228
354 339 320 311 318 324 318 302 308 296 285 285 279 269 260 246 240 235 234 232 231 233 236 236 232 226 222 217 215 212 211 208 207 207 206 206 207 209 211 215 219 224 229
344 330 315 305 292 309 310 307 306 307 306 299 287 278 268 257 249 241 236 232 230 233 236 239 237 231 227 222 219 217 214 215 211 210 210 211 212 213 215 219 220 222 227
319 306 291 293 295 303 297 294 297 305 298 292 287 280 276 266 259 245 238 233 228 230 233 237 239 235 231 227 223 221 218 218 217 215 214 214 215 217 219 220 220 223 228
292 271 255 266 287 278 277 287 299 294 292 293 286 281 277 271 263 256 246 238 232 229 230 234 236 236 233 231 228 225 222 221 221 220 218 218 218 219 220 222 222 224 230
280 267 250 255 261 266 269 272 281 288 282 283 292 290 280 274 264 253 247 242 237 235 232 233 232 234 233 233 232 231 227 225 224 226 222 221 222 222 223 224 225 228 231
270 251 255 253 248 247 248 254 270 279 288 296 302 302 294 271 260 255 248 244 244 242 236 232 230 229 233 233 232 234 232 230 228 228 226 222 224 225 226 226 226 228 232
260 256 243 248 249 251 252 249 251 253 275 287 290 309 302 304 278 262 254 248 248 242 240 239 235 230 230 229 230 231 233 233 232 229 229 225 224 225 228 229 229 230 232
256 248 240 242 246 240 241 242 237 235 259 268 236 225 263 269 303 274 256 253 251 246 245 240 238 236 232 231 229 226 229 233 234 233 233 230 226 226 229 230 232 231 232
254 249 241 239 240 240 241 241 240 234 234 257 259 239 244 253 272 289 281 261 258 254 249 248 240 239 236 231 230 227 227 232 235 235 233 233 232 230 230 230 231 235 235
251 246 239 238 238 240 242 240 241 236 230 241 249 257 261 256 252 262 278 279 273 258 250 242 235 235 239 234 228 228 227 229 234 235 235 234 237 235 231 230 231 234 237
259 249 243 240 238 240 242 243 238 234 235 240 245 247 247 245 246 251 263 269 272 273 260 244 235 231 235 234 233 229 226 227 231 234 234 235 241 238 233 229 230 231 235
261 252 250 243 243 242 243 245 241 237 235 238 242 245 246 245 248 253 260 268 272 279 261 247 233 226 235 234 234 226 224 225 227 229 230 232 238 235 227 230 231 231 232
255 252 247 244 243 244 249 247 247 244 242 240 247 245 247 246 242 245 248 259 272 276 263 252 242 226 226 231 235 222 222 222 223 221 223 221 227 224 220 225 227 228 227
258 253 250 249 248 246 247 247 249 247 244 243 246 247 247 247 242 242 243 240 246 264 267 251 243 231 225 229 228 224 222 223 222 216 212 210 213 212 212 218 219 222 219
256 255 255 253 252 251 249 247 251 250 247 248 248 249 250 249 246 242 241 242 239 245 261 251 245 247 229 237 233 228 223 219 214 210 206 204 205 208 207 210 213 212 207
259 260 260 258 255 255 252 249 250 252 252 254 252 249 250 247 244 243 241 241 244 240 251 265 251 237 226 229 228 225 218 208 206 204 206 202 199 204 201 206 209 204 205
263 261 263 261 260 260 254 251 255 255 254 255 254 252 252 248 242 242 241 241 243 236 232 253 258 237 232 221 213 215 216 207 198 196 196 195 195 203 199 200 199 200 201
272 270 267 265 263 260 256 254 253 254 254 254 253 252 250 244 244 241 239 242 243 238 221 229 245 234 229 211 198 223 189 179 197 190 186 189 192 198 196 196 195 195 197
275 273 270 268 265 263 261 260 258 257 257 256 253 253 249 241 240 238 241 239 238 232 219 216 228 218 218 206 189 191 181 161 173 178 184 184 184 189 188 189 193 195 195
277 275 273 274 270 267 264 263 262 262 260 260 258 254 246 240 241 240 243 234 225 224 212 211 216 219 214 200 203 184 179 148 51 172 154 177 174 175 183 183 190 193 195
280 280 277 276 277 277 277 275 273 269 264 259 260 256 246 239 245 245 248 240 226 219 209 208 215 207 211 204 186 171 166 173 233 164 141 204 150 168 181 190 188 188 189
282 281 280 277 277 279 281 280 276 274 264 258 255 251 249 245 244 238 240 240 235 231 218 210 208 210 205 196 180 182 185 187 217 183 142 231 213 174 178 184 176 182 184
286 283 281 282 281 281 283 283 282 275 265 257 251 242 237 238 230 224 218 221 225 223 217 211 206 206 202 188 183 183 168 126 89 121 175 203 196 153 121 162 172 171 175
290 285 285 282 282 283 283 285 283 273 262 259 252 237 226 226 228 222 204 202 202 214 199 181 186 187 181 178 171 150 149 150 177 233 209 164 151 116 97 103 168 168 169
291 293 289 283 280 280 284 287 286 271 264 262 252 233 226 222 220 212 195 184 187 192 168 144 134 132 145 161 173 175 170 171 171 196 193 151 144 132 123 61 76 123 138
Height
1490 1489 1489 1488 1487 1487 1486 1486 1486 1485 1485 1485 1485 1485 1486 1486 1487 1487 1487 1488 1489 1489 1490 1491 1491 1492 1493 1494 1494 1495 1496 1496 1497 1498 1498 1499 1500 1500 1500 1500 1501 1501 1501
1487 1486 1486 1485 1484 1483 1483 1483 1482 1482 1481 1481 1481 1481 1481 1482 1482 1482 1483 1483 1484 1484 1485 1486 1487 1487 1488 1489 1490 1491 1492 1492 1493 1494 1494 1495 1496 1496 1497 1497 1497 1497 1497
1484 1483 1482 1482 1481 1480 1480 1479 1479 1478 1477 1477 1476 1476 1476 1476 1477 1477 1477 1478 1478 1479 1480 1481 1481 1482 1483 1484 1485 1486 1487 1488 1489 1490 1490 1491 1492 1493 1493 1493 1494 1494 1494
1481 1480 1479 1479 1478 1477 1476 1475 1474 1474 1473 1472 1471 1471 1471 1471 1471 1472 1472 1472 1473 1473 1474 1475 1476 1477 1478 1479 1480 1481 1482 1484 1485 1485 1486 1487 1488 1488 1489 1490 1490 1490 1490
1477 1476 1476 1475 1475 1474 1473 1472 1470 1470 1469 1467 1467 1466 1466 1466 1466 1466 1466 1466 1467 1468 1469 1469 1470 1471 1472 1474 1475 1476 1477 1478 1479 1480 1481 1482 1483 1484 1485 1486 1486 1486 1486
1474 1473 1472 1472 1471 1470 1469 1468 1467 1467 1466 1464 1463 1461 1461 1460 1460 1460 1460 1461 1461 1462 1463 1463 1464 1465 1467 1468 1469 1471 1471 1473 1474 1475 1476 1477 1479 1479 1480 1481 1481 1481 1481
1470 1469 1468 1467 1467 1466 1465 1465 1464 1463 1462 1461 1459 1456 1455 1455 1454 1454 1455 1455 1455 1455 1456 1457 1458 1459 1460 1462 1463 1465 1466 1467 1469 1470 1471 1472 1473 1474 1475 1476 1476 1477 1477
1465 1464 1463 1463 1462 1462 1461 1461 1460 1458 1458 1458 1456 1453 1450 1449 1448 1449 1449 1449 1449 1450 1450 1451 1452 1453 1454 1455 1456 1459 1460 1461 1463 1464 1465 1466 1467 1468 1469 1471 1471 1472 1472
1461 1460 1459 1458 1458 1457 1456 1455 1455 1454 1453 1454 1453 1453 1450 1445 1444 1442 1443 1443 1443 1443 1443 1444 1445 1446 1447 1449 1449 1451 1454 1456 1457 1458 1459 1460 1461 1462 1463 1465 1466 1466 1466
1456 1455 1455 1454 1453 1452 1451 1450 1450 1449 1449 1448 1448 1448 1447 1445 1443 1438 1437 1437 1438 1437 1437 1437 1438 1439 1441 1442 1443 1445 1447 1449 1451 1452 1453 1454 1456 1457 1458 1459 1460 1461 1461
1451 1450 1450 1448 1447 1446 1446 1445 1445 1444 1443 1443 1443 1442 1441 1440 1439 1437 1433 1431 1431 1432 1432 1432 1432 1433 1434 1435 1436 1437 1440 1442 1444 1446 1447 1448 1450 1452 1453 1454 1455 1456 1456
1445 1444 1444 1442 1441 1440 1440 1439 1438 1437 1437 1437 1437 1436 1435 1434 1433 1432 1430 1427 1426 1425 1426 1426 1425 1426 1428 1429 1430 1431 1433 1435 1438 1440 1441 1443 1444 1446 1447 1449 1450 1451 1451
1439 1438 1437 1436 1435 1434 1433 1432 1431 1430 1430 1430 1429 1429 1429 1428 1428 1427 1426 1423 1421 1420 1420 1420 1419 1420 1422 1423 1424 1425 1427 1429 1432 1433 1435 1437 1439 1440 1441 1443 1445 1445 1446
1432 1432 1430 1429 1428 1427 1426 1425 1424 1423 1423 1422 1422 1422 1422 1421 1421 1421 1420 1419 1417 1415 1414 1413 1413 1414 1416 1417 1418 1419 1421 1423 1425 1427 1429 1431 1433 1434 1436 1438 1439 1440 1441
1426 1425 1424 1422 1421 1420 1419 1418 1416 1415 1415 1415 1414 1414 1414 1414 1414 1414 1414 1414 1414 1410 1407 1407 1407 1408 1410 1411 1413 1414 1415 1417 1419 1421 1423 1425 1427 1428 1430 1433 1434 1435 1435
1420 1418 1416 1415 1413 1412 1411 1410 1409 1408 1407 1406 1406 1406 1406 1406 1406 1406 1406 1407 1407 1406 1403 1401 1402 1403 1404 1405 1407 1408 1410 1411 1413 1415 1417 1419 1421 1423 1425 1427 1428 1430 1430
1412 1411 1409 1407 1405 1404 1403 1402 1401 1400 1398 1398 1398 1398 1397 1398 1397 1398 1398 1399 1399 1400 1398 1396 1398 1398 1399 1400 1401 1403 1404 1405 1407 1410 1412 1414 1415 1418 1420 1422 1423 1424 1425
1405 1404 1402 1400 1398 1396 1395 1394 1392 1391 1390 1389 1389 1389 1389 1390 1389 1390 1391 1391 1392 1393 1393 1392 1392 1393 1394 1395 1396 1397 1399 1401 1403 1405 1407 1409 1411 1413 1415 1417 1418 1419 1420
1398 1397 1395 1392 1390 1389 1387 1386 1385 1383 1382 1381 1380 1380 1380 1381 1381 1382 1383 1384 1385 1386 1387 1388 1387 1388 1389 1391 1392 1393 1394 1396 1399 1400 1402 1404 1406 1408 1410 1412 1413 1414 1415
1392 1389 1387 1385 1383 1381 1379 1378 1376 1375 1374 1373 1373 1373 1373 1373 1374 1375 1376 1377 1378 1379 1381 1382 1383 1383 1384 1386 1388 1388 1390 1392 1394 1396 1398 1400 1402 1404 1405 1407 1408 1410 1411
1385 1383 1380 1378 1375 1373 1371 1370 1368 1367 1366 1365 1364 1364 1365 1366 1367 1368 1369 1370 1372 1373 1375 1376 1378 1378 1380 1382 1383 1385 1387 1388 1390 1393 1394 1396 1398 1399 1401 1403 1404 1405 1407
1379 1376 1373 1370 1367 1365 1364 1362 1361 1360 1358 1357 1356 1357 1357 1359 1360 1361 1362 1364 1366 1368 1369 1371 1372 1374 1375 1378 1379 1381 1383 1385 1386 1390 1391 1392 1394 1395 1397 1399 1400 1401 1403
1372 1368 1365 1363 1360 1357 1356 1355 1353 1352 1350 1350 1350 1350 1351 1352 1353 1355 1356 1358 1360 1363 1365 1367 1367 1369 1371 1373 1375 1378 1380 1382 1383 1386 1388 1389 1391 1392 1394 1396 1397 1398 1400
1365 1362 1359 1356 1353 1350 1349 1347 1346 1344 1343 1343 1343 1343 1344 1345 1347 1349 1350 1352 1355 1357 1360 1362 1364 1365 1368 1370 1372 1374 1376 1379 1381 1384 1386 1387 1388 1390 1392 1394 1395 1396 1397
1359 1356 1353 1350 1347 1344 1343 1341 1339 1337 1336 1335 1336 1337 1338 1340 1342 1344 1346 1348 1350 1353 1356 1358 1361 1362 1364 1367 1369 1371 1373 1375 1377 1380 1382 1384 1386 1388 1390 1392 1393 1394 1395
1353 1350 1347 1344 1342 1339 1337 1335 1333 1331 1329 1329 1329 1331 1333 1335 1337 1340 1342 1344 1346 1349 1351 1354 1357 1359 1361 1363 1365 1368 1370 1373 1375 1377 1379 1382 1383 1385 1388 1390 1391 1392 1393